Powrót do katalogu

TIANHUI 6A

AktywnyNaukaSSO
NORAD 55836·PAYLOAD·🇨🇳 China

Wystrzelony Mar 9, 2023 z Taiyuan Satellite Launch Center

Loading…

Następne Przeloty (najbliższe 24 godziny)

TLE

ŚwieżeSource: Space-Track

Epoka: Sep 14, 2026, 14:44 UTC

1 55836U 23030A   26257.61434394 -.00000117  00000-0 -48626-4 0  9992
2 55836  99.0125 264.7497 0003135 131.0759 229.0678 14.01326929179921

Śledź TIANHUI 6A w czasie rzeczywistym z AllMySat

Download on the App Store